User: anonymous   Login
Location: Bougoura
(13.1861°N, 5.0773°W)
Time: 01:46:25
(UTC+00:00)
Language:

H-2A R/B - Orbit

View from above orbital plane
View from above orbital plane
View from above satellite
View from above satellite

Ground track
Ground track

The orbit data is extracted from the following two-line orbital elements,

1 27601U 02056E   20334.57951628 +.00000132 +00000-0 +62290-4 0  9993
2 27601 098.2095 001.7192 0072874 145.0295 328.4610 14.31986619938322
Epoch (UTC): 29 November 2020 13:54:30
Eccentricity: 0.0072874
inclination: 98.2095°
perigee height: 733 km
apogee height: 837 km
right ascension of ascending node: 1.7192°
argument of perigee: 145.0295°
revolutions per day: 14.31986619
mean anomaly at epoch: 328.4610°
orbit number at epoch: 93832

The dashed part of the orbit path shows where the satellite is in the earth's shadow,  

DLR